Location: Dos Palmas
(32.4468°N, 116.8732°W)
Time: 02:18:26
(UTC+00:00)

Cosmos 2082 Rocket - Pass Details

Date: 20 June 2021
Orbit: 832 x 854 km, 71.0° (Epoch: 27 July)

Event Time Altitude Azimuth Distance (km) Brightness Sun altitude
Exits shadow 11:30:51 10° 193° (SSW) 2,405 4.1 -13.1°
Maximum altitude 11:36:20 76° 108° (ESE) 859 2.3 -12.2°
Drops below altitude 10° 11:41:56 10° 24° (NNE) 2,444 5.6 -11.2°
Sets 11:44:22 0° 23° (NNE) 3,383 6.5 -10.8°
